Wind_Speed
29 26 23 20 17 16 14 11 9 10 8 6 7 8 11 13 14 16 19 21 20 19 18 15 16 13 11 8 11 3 8 2 6 10 14 13 15 16 19 18 20 23 22 21 22 21 19
32 28 24 21 18 15 14 11 9 9 8 7 7 10 13 14 16 18 20 22 21 19 18 17 16 8 10 14 3 2 5 8 10 12 14 14 12 11 16 15 18 17 14 18 19 22 19
34 31 26 21 18 16 14 11 10 9 8 7 9 10 11 14 17 19 20 21 18 19 19 12 9 9 11 17 7 6 7 9 11 15 14 12 13 11 6 13 15 18 21 21 21 20 22
35 32 28 23 21 17 15 12 10 8 7 8 8 9 12 15 18 19 19 17 18 12 5 4 5 9 7 3 8 11 11 12 15 14 15 15 12 13 16 13 18 17 19 19 17 18 13
33 29 24 24 21 18 14 11 9 9 8 7 7 9 13 17 19 17 15 16 9 1 1 4 7 10 6 1 5 2 8 11 10 12 10 8 10 14 14 13 14 15 16 17 15 9 12
31 27 25 22 21 16 14 11 10 8 7 7 7 10 13 16 18 14 12 6 4 3 4 6 7 7 6 1 4 6 7 8 7 8 10 11 8 12 15 14 15 12 17 18 13 6 10
27 24 22 21 17 13 13 12 10 8 8 7 8 10 14 16 15 11 13 5 6 8 10 10 10 14 12 11 13 14 6 10 9 9 11 13 12 16 18 17 20 19 19 21 18 17 19
27 24 22 19 16 15 13 12 10 9 7 7 9 12 13 15 9 9 7 2 6 5 7 5 7 8 10 6 6 9 11 9 13 13 13 10 15 17 13 15 16 17 19 20 21 17 15
26 25 22 19 17 15 11 11 9 8 7 8 9 11 11 13 2 3 10 5 5 4 6 5 5 4 2 6 3 2 9 13 13 13 14 15 15 2 9 15 16 18 18 18 19 17 19
22 23 18 18 16 13 10 9 8 6 5 5 7 8 9 3 3 1 3 4 6 2 5 9 7 4 5 4 4 2 3 8 8 13 13 15 15 17 16 18 16 17 17 12 13 14 13
19 17 16 16 16 13 11 9 6 4 4 4 6 7 8 5 6 3 4 5 2 4 4 4 7 4 4 5 8 5 3 5 10 12 8 14 10 10 14 16 14 14 8 11 16 16 18
18 16 15 13 11 9 8 8 6 4 5 4 6 7 7 3 4 4 8 4 4 5 3 6 3 1 6 4 2 5 4 4 7 10 14 16 14 9 14 9 10 14 8 17 20 15 14
15 16 13 11 9 7 7 7 6 4 3 5 5 5 4 3 4 10 6 4 6 6 4 5 1 2 8 12 8 5 9 11 10 9 14 18 17 16 7 13 9 9 10 7 9 10 11
17 14 11 9 9 10 9 9 6 3 2 4 3 1 3 4 7 7 5 6 6 5 4 3 5 12 14 11 11 10 13 14 15 15 13 14 10 12 10 16 11 12 13 8 7 6 12
14 11 10 10 9 12 10 7 5 1 3 3 2 2 1 4 8 6 6 6 6 6 4 7 11 15 12 4 3 15 14 16 15 5 12 13 13 9 9 7 12 6 10 16 15 18 12
11 10 9 9 11 10 8 6 3 1 3 1 2 4 2 8 9 7 5 3 1 4 5 4 6 3 9 9 7 12 8 5 5 6 12 17 17 14 14 8 12 14 4 5 6 5 9
14 12 11 10 9 7 5 6 6 2 3 2 5 3 2 9 7 4 3 3 1 4 5 4 5 9 11 13 13 15 13 10 6 9 15 17 15 18 11 12 16 10 12 8 5 6 4
14 11 10 10 9 6 5 4 3 2 2 2 2 1 3 7 1 2 3 2 1 2 1 2 4 5 6 9 12 14 18 20 7 10 13 10 8 14 21 17 16 9 13 13 6 7 5
14 11 9 10 10 9 6 3 3 2 1 2 0 2 1 4 2 3 4 4 0 2 1 1 3 3 8 10 8 9 13 14 18 12 2 6 6 10 17 14 14 12 17 10 6 2 11
16 12 12 12 11 8 5 5 3 3 1 4 0 2 3 1 2 5 5 4 6 2 3 2 3 3 6 8 10 9 15 12 10 11 7 0 5 14 15 6 3 9 20 11 13 5 7
19 15 12 10 10 9 6 5 4 2 2 3 1 1 2 3 4 5 7 5 4 3 5 4 1 4 3 5 14 12 13 12 17 16 13 5 9 14 20 25 7 1 15 16 16 11 7
20 18 14 12 12 9 7 6 4 2 2 3 2 1 3 5 6 4 2 4 2 3 2 3 3 7 10 12 12 16 14 15 10 12 5 4 9 11 19 22 12 8 14 12 8 9 10
17 18 16 15 11 12 9 7 5 5 2 3 1 2 4 6 7 5 4 3 3 3 4 6 6 10 13 13 12 18 19 19 18 17 16 6 5 6 11 18 8 4 17 17 8 5 6
15 16 15 15 13 13 11 9 7 6 2 2 2 1 1 4 5 4 3 4 6 6 7 8 8 10 13 14 19 20 21 23 22 20 18 9 10 3 12 15 11 7 4 0 3 1 8
17 16 15 15 14 14 13 11 8 7 5 4 3 3 1 2 2 5 7 8 6 7 8 8 9 8 12 16 12 11 12 16 18 19 18 13 7 4 6 10 7 12 6 3 5 6 11
17 17 18 16 16 15 13 11 9 10 8 3 2 1 1 3 4 1 4 4 6 4 4 3 3 10 7 3 5 8 6 11 3 8 16 11 12 4 9 3 5 9 8 4 7 4 11
18 17 20 16 17 16 14 12 10 9 10 5 1 3 1 2 1 4 1 4 3 3 5 4 7 7 1 4 7 6 5 13 6 11 9 8 8 12 7 3 8 13 9 8 7 5 11
19 19 18 17 16 16 15 13 11 10 10 8 2 6 2 2 3 4 4 5 4 4 4 7 6 3 4 4 4 4 4 3 4 3 7 6 4 4 5 3 3 19 5 6 6 5 9
20 19 16 16 16 16 14 12 12 11 12 11 2 6 5 4 4 5 8 11 11 12 8 4 5 4 3 4 5 4 5 5 8 2 4 2 4 3 6 4 10 12 10 9 9 8 9
Wind_Direction
211 207 202 204 205 207 209 208 219 245 251 267 289 296 302 309 311 309 309 307 307 308 306 302 303 308 311 239 256 190 218 208 181 197 221 220 222 228 236 245 252 243 257 263 273 265 263
205 203 199 200 204 210 205 211 224 237 246 267 288 299 302 306 306 307 306 305 307 304 300 294 290 276 258 261 343 247 225 229 235 215 227 237 239 247 272 276 263 262 278 271 266 262 265
201 197 194 199 203 205 209 210 223 226 233 265 293 306 310 309 308 308 307 305 305 304 300 283 257 212 256 252 308 264 242 250 244 239 251 238 258 256 247 268 266 275 271 273 258 257 258
192 192 195 195 196 205 207 213 210 222 239 271 287 306 312 314 315 314 309 306 306 308 298 282 237 204 258 279 269 271 259 244 238 238 248 264 258 260 266 267 278 268 266 269 262 250 252
191 192 192 193 198 194 204 208 215 233 252 261 288 308 319 321 321 315 310 308 304 304 18 110 164 228 263 197 231 306 228 230 214 226 229 245 239 247 241 248 263 246 256 267 261 221 245
185 185 187 187 181 188 197 225 225 231 245 273 297 312 322 322 323 317 330 338 286 201 181 227 246 223 250 21 336 297 238 232 224 187 202 218 226 232 228 237 242 262 243 241 247 255 277
172 178 180 177 182 202 208 205 211 224 245 278 302 315 321 321 325 338 338 233 203 199 212 272 321 281 297 296 289 250 208 215 220 211 212 197 223 228 235 228 259 282 282 282 281 290 286
171 178 185 185 187 186 199 199 211 214 241 275 301 314 318 325 324 7 303 10 36 359 294 246 274 275 277 294 270 222 216 225 204 224 211 224 232 252 260 256 257 258 269 270 274 265 258
167 179 177 179 180 176 178 178 192 213 246 281 302 316 320 329 277 345 56 47 350 325 257 171 220 250 343 218 305 50 212 225 244 230 236 244 251 42 282 260 252 258 256 274 281 297 279
166 164 170 172 170 173 177 179 193 219 252 291 308 320 327 331 264 3 110 359 338 280 256 144 182 153 190 257 228 340 234 236 227 253 264 255 266 269 251 253 255 261 260 271 279 280 284
160 163 165 170 163 168 174 181 186 221 265 303 318 323 333 352 326 255 14 339 343 217 256 129 124 100 232 262 317 139 166 201 252 228 233 247 229 235 245 250 262 259 308 271 273 278 285
152 152 155 156 161 166 178 190 197 236 273 295 316 325 344 308 263 340 322 316 202 233 181 135 126 307 313 192 251 111 219 255 262 263 241 252 276 249 264 262 248 254 266 263 257 256 261
153 154 157 160 165 179 194 200 210 216 266 298 308 314 321 311 331 325 320 225 240 249 151 108 19 291 306 286 287 228 234 210 244 227 237 227 229 225 232 245 221 239 245 277 235 217 243
155 162 165 166 174 180 183 183 194 197 266 295 296 107 299 334 321 322 261 231 258 47 50 46 302 293 279 292 280 247 278 262 241 244 269 279 270 193 200 231 236 217 227 244 299 284 298
153 164 169 172 174 169 164 176 196 198 291 304 119 169 220 328 333 319 252 237 358 17 13 335 306 263 271 194 251 302 270 269 276 274 245 271 252 146 182 207 229 201 217 240 270 275 275
154 156 169 173 174 171 174 180 197 235 310 350 214 194 74 326 322 271 249 313 43 23 333 313 292 331 305 322 330 306 313 0 332 331 291 276 274 209 185 218 240 249 290 233 226 258 242
160 163 172 184 177 188 205 212 220 234 317 358 227 214 50 322 307 239 221 70 87 68 341 303 314 296 300 302 301 287 282 310 6 326 312 282 252 260 222 212 237 205 234 236 285 266 290
162 170 163 168 172 187 176 179 184 237 333 264 241 177 353 331 163 209 158 67 354 81 204 275 295 290 292 308 289 279 272 276 337 332 317 342 300 261 237 230 235 259 225 231 248 266 260
166 161 170 178 172 184 178 184 200 269 280 257 259 92 69 295 141 148 120 133 60 193 4 246 271 302 321 303 300 284 299 299 287 293 287 3 296 265 250 255 224 226 248 222 222 254 270
171 167 165 169 172 174 172 200 196 242 33 306 157 133 141 182 59 98 138 151 152 140 117 280 325 254 313 323 300 286 296 281 307 283 114 343 263 279 275 336 325 276 238 202 218 240 274
188 179 175 169 171 166 165 200 194 212 100 300 21 247 40 156 150 128 185 208 166 221 192 234 156 227 295 309 312 298 322 327 309 248 242 240 262 280 285 278 277 149 275 213 218 223 261
201 180 183 180 172 174 179 193 200 190 150 288 153 181 207 126 133 197 146 188 240 139 258 120 258 283 319 293 300 308 306 300 300 300 319 192 273 289 291 263 239 296 311 281 255 276 275
175 188 189 184 174 172 182 187 187 175 219 106 311 305 279 116 185 214 159 159 213 276 245 247 287 325 301 314 313 298 294 284 275 273 278 285 292 299 291 219 186 233 248 246 230 263 278
189 190 190 185 181 174 186 188 193 194 234 14 163 243 182 205 211 189 174 238 256 273 279 289 297 285 290 322 304 280 264 256 252 249 248 235 272 256 274 175 193 154 304 351 280 78 27
187 188 192 191 187 180 184 189 194 196 189 321 141 280 289 251 209 180 231 252 265 257 243 271 297 318 321 299 291 291 279 262 241 230 230 225 237 284 278 170 122 158 81 42 330 93 51
194 195 191 190 189 188 186 188 194 197 190 250 154 339 351 306 218 12 243 249 284 295 262 251 296 323 295 283 278 268 276 290 225 182 204 189 216 234 301 200 161 110 86 354 304 177 11
201 200 189 194 193 198 189 187 189 187 193 212 133 211 260 290 191 227 289 350 13 296 288 319 351 304 307 287 277 281 299 266 257 157 179 201 211 234 264 285 99 6 347 312 262 33 2
203 193 195 193 204 194 189 192 193 196 199 191 185 192 226 262 273 227 260 255 227 238 295 334 312 22 303 290 310 5 261 312 281 75 166 197 220 218 238 262 143 354 49 8 343 16 22
189 186 189 190 190 192 193 192 195 200 202 193 222 190 214 269 307 316 282 278 278 291 309 314 306 304 328 315 354 311 285 343 323 152 29 74 12 311 35 48 46 33 50 25 14 42 43
Height
790 793 793 797 799 799 800 800 801 805 804 801 799 798 798 795 791 788 787 782 780 777 775 774 773 772 773 761 749 743 746 747 746 748 746 742 741 738 738 729 725 725 721 716 714 710 712
782 787 790 792 794 797 797 798 798 800 802 800 797 795 793 792 789 785 782 780 776 774 771 770 769 771 771 759 745 745 746 747 745 745 742 741 735 730 731 729 726 722 718 717 713 710 708
775 779 782 788 791 793 795 794 796 796 798 797 795 792 790 789 787 782 778 775 772 769 768 766 765 767 763 749 746 745 745 744 743 742 740 739 738 735 731 735 727 726 729 719 711 708 708
766 772 777 780 786 791 793 792 792 797 794 794 793 790 787 785 783 778 774 771 768 765 764 764 763 766 750 742 744 742 741 741 743 743 742 739 738 738 737 731 734 734 729 724 700 696 695
762 768 775 778 782 785 790 791 791 793 793 792 790 788 784 783 780 775 770 767 765 765 763 761 765 763 740 738 738 737 739 738 735 738 740 739 738 739 740 742 745 730 729 712 702 690 697
758 765 769 775 777 782 784 789 789 791 793 792 788 784 782 780 777 773 768 764 765 765 764 763 764 759 739 732 737 739 738 737 733 732 737 739 735 737 736 735 735 716 712 705 703 697 699
754 765 769 770 774 780 783 785 787 789 791 789 786 783 781 779 774 769 765 766 764 758 758 745 743 741 736 737 738 735 734 733 730 729 734 731 736 730 726 725 728 720 720 717 706 700 706
752 763 767 771 773 777 782 783 785 786 788 787 785 783 779 776 772 770 768 760 766 770 752 745 745 745 742 742 738 729 730 731 725 725 721 725 730 718 714 719 723 725 725 722 706 696 702
752 760 765 769 772 775 779 780 782 785 785 784 782 780 777 774 773 771 768 769 770 769 755 739 738 737 736 741 732 725 727 724 720 721 718 722 710 718 721 721 725 719 720 714 709 695 689
751 758 763 766 769 774 778 780 781 784 782 781 781 778 776 773 773 769 767 772 770 770 742 735 733 734 733 734 731 726 726 721 720 723 717 714 710 714 717 722 716 718 703 706 711 707 698
754 760 763 766 769 774 776 778 778 782 783 779 779 777 774 773 772 767 771 769 769 769 728 728 728 732 724 730 723 723 726 723 723 720 726 719 714 719 721 716 709 711 704 712 710 708 697
756 760 763 767 771 774 775 777 777 780 781 778 777 775 775 773 774 773 771 769 769 744 724 728 726 731 725 718 717 718 723 723 716 717 714 715 704 712 710 705 709 706 714 711 702 699 702
757 761 765 767 770 773 777 778 777 776 779 779 775 775 776 774 769 772 770 766 740 726 722 730 732 734 731 722 718 716 715 718 719 719 708 699 701 701 711 713 708 711 716 713 694 692 689
758 763 766 768 770 773 775 776 777 776 777 778 774 774 775 775 773 770 768 751 736 725 729 738 739 736 731 718 720 713 716 711 702 705 707 705 703 694 699 708 704 704 710 710 703 688 686
761 766 767 770 772 775 774 776 778 776 777 777 774 774 773 773 772 770 760 740 728 737 749 750 740 730 721 718 732 724 715 707 698 694 710 703 695 692 696 699 701 700 708 696 703 687 688
763 766 770 771 775 776 775 775 776 777 777 775 772 772 772 772 771 768 750 746 743 754 758 754 749 737 735 725 736 722 720 705 706 708 705 703 703 690 691 697 696 697 696 711 704 707 688
764 768 770 773 774 777 776 775 777 777 776 776 774 764 773 771 768 755 753 747 756 762 765 761 752 749 747 746 743 740 731 717 720 723 719 708 700 696 685 695 691 697 701 701 703 697 690
764 770 769 772 774 779 778 777 776 778 777 777 771 765 774 771 762 755 749 756 775 763 766 765 763 759 756 752 748 743 740 731 724 732 734 728 719 697 684 674 670 675 685 693 704 690 685
765 766 769 774 776 780 778 777 777 779 778 775 764 765 773 771 767 755 765 766 767 765 766 764 761 759 757 757 756 742 737 733 730 732 747 752 721 706 692 682 671 678 677 677 696 703 697
766 769 772 776 777 779 777 778 778 780 778 776 771 772 768 765 763 764 768 766 767 773 772 771 767 767 763 757 748 747 741 735 733 732 744 747 742 723 698 697 699 696 675 679 691 700 689
766 770 774 775 777 777 777 780 780 779 778 779 775 771 765 770 766 766 771 769 768 774 772 767 777 773 765 765 756 744 744 744 738 730 733 742 733 722 706 686 690 698 705 677 686 685 690
765 769 773 775 775 777 778 779 781 780 780 778 781 768 770 763 771 770 779 768 766 769 772 764 776 763 760 759 751 755 751 747 744 732 737 742 734 721 720 698 693 696 693 676 674 675 675
763 767 770 772 773 776 779 779 781 781 782 777 782 777 768 771 767 766 763 769 774 775 770 767 765 767 763 757 755 752 750 746 742 742 740 748 738 733 717 692 696 706 690 679 674 671 673
763 766 768 771 773 775 779 780 781 783 782 780 782 779 773 767 761 766 773 775 774 772 772 767 766 766 762 759 758 747 737 731 729 728 728 744 741 739 724 683 698 678 673 669 674 673 677
761 764 767 770 773 776 778 780 782 783 784 783 784 779 775 772 764 770 776 775 772 770 770 767 765 763 766 762 753 734 719 709 709 713 715 720 742 735 705 671 681 676 683 681 683 697 694
759 762 766 769 772 775 778 780 782 784 785 786 785 784 782 781 772 773 775 773 767 761 761 763 765 767 766 767 755 746 732 718 702 695 702 717 732 741 714 690 687 688 686 689 684 692 709
757 760 764 768 771 774 777 780 782 784 786 787 787 789 787 789 776 779 771 770 772 773 767 761 766 763 762 760 754 741 737 713 704 696 714 719 721 721 715 684 681 696 692 689 693 719 716
755 759 763 767 770 773 776 779 781 784 786 788 789 790 792 791 778 781 780 777 774 775 774 770 768 769 765 758 746 752 752 711 701 690 698 699 698 697 694 692 696 714 696 702 733 727 727
752 757 761 765 768 772 775 778 781 784 786 788 790 791 793 794 784 784 782 781 781 779 776 774 773 774 772 768 757 761 745 723 713 705 699 714 723 714 720 724 736 738 740 746 740 739 740